QPF
0.02 0.01 0.00 0.01 0.01 0.00 0.01 0.01 0.01 0.01 0.01 0.01 0.01 0.02 0.03 0.02 0.02 0.03 0.04 0.04 0.04 0.05 0.04 0.04 0.03 0.04 0.05 0.06 0.06 0.06 0.06 0.08 0.08 0.09 0.10 0.11 0.11 0.09 0.06 0.05 0.08 0.10 0.12
0.03 0.01 0.00 0.01 0.00 0.00 0.00 0.01 0.01 0.01 0.01 0.01 0.01 0.02 0.02 0.02 0.02 0.04 0.06 0.05 0.04 0.05 0.04 0.04 0.03 0.04 0.04 0.04 0.05 0.05 0.06 0.07 0.07 0.09 0.09 0.09 0.10 0.09 0.08 0.09 0.09 0.10 0.11
0.06 0.03 0.01 0.00 0.00 0.00 0.00 0.00 0.01 0.01 0.01 0.01 0.02 0.02 0.01 0.01 0.01 0.02 0.03 0.03 0.03 0.04 0.04 0.03 0.03 0.04 0.05 0.04 0.04 0.04 0.04 0.06 0.05 0.07 0.08 0.07 0.05 0.06 0.08 0.09 0.11 0.09 0.09
0.05 0.02 0.01 0.00 0.00 0.00 0.01 0.01 0.01 0.01 0.01 0.02 0.02 0.02 0.02 0.01 0.02 0.03 0.03 0.04 0.03 0.03 0.03 0.03 0.04 0.03 0.04 0.03 0.04 0.04 0.06 0.06 0.03 0.04 0.04 0.05 0.06 0.05 0.06 0.08 0.09 0.09 0.08
0.04 0.01 0.01 0.01 0.01 0.01 0.02 0.03 0.05 0.04 0.04 0.04 0.04 0.03 0.03 0.03 0.04 0.03 0.03 0.03 0.02 0.02 0.02 0.03 0.03 0.02 0.02 0.02 0.03 0.04 0.04 0.04 0.04 0.04 0.05 0.05 0.05 0.05 0.05 0.05 0.06 0.07 0.07
0.02 0.02 0.02 0.01 0.01 0.02 0.03 0.07 0.09 0.07 0.08 0.12 0.07 0.05 0.04 0.04 0.04 0.04 0.03 0.03 0.02 0.02 0.02 0.01 0.02 0.02 0.01 0.01 0.03 0.03 0.03 0.03 0.03 0.03 0.03 0.04 0.06 0.07 0.08 0.06 0.05 0.06 0.07
0.02 0.02 0.02 0.02 0.02 0.03 0.05 0.08 0.07 0.04 0.04 0.06 0.06 0.07 0.06 0.04 0.04 0.03 0.03 0.02 0.02 0.02 0.03 0.02 0.02 0.03 0.02 0.02 0.02 0.02 0.02 0.03 0.03 0.02 0.03 0.04 0.03 0.04 0.06 0.07 0.06 0.04 0.04
0.03 0.02 0.02 0.03 0.03 0.04 0.08 0.11 0.06 0.03 0.03 0.06 0.09 0.06 0.06 0.06 0.04 0.04 0.02 0.02 0.02 0.02 0.02 0.02 0.02 0.03 0.02 0.02 0.02 0.02 0.02 0.02 0.01 0.01 0.02 0.04 0.03 0.04 0.05 0.05 0.05 0.03 0.03
0.03 0.02 0.03 0.03 0.03 0.03 0.07 0.13 0.04 0.02 0.03 0.06 0.05 0.04 0.06 0.04 0.03 0.02 0.01 0.02 0.01 0.01 0.01 0.01 0.02 0.02 0.02 0.03 0.03 0.03 0.02 0.02 0.01 0.01 0.03 0.05 0.05 0.03 0.03 0.04 0.04 0.03 0.03
0.03 0.03 0.03 0.03 0.03 0.03 0.03 0.06 0.01 0.02 0.02 0.03 0.03 0.03 0.03 0.04 0.03 0.01 0.01 0.01 0.01 0.01 0.01 0.02 0.02 0.02 0.02 0.02 0.02 0.02 0.02 0.02 0.02 0.02 0.04 0.05 0.06 0.05 0.04 0.04 0.05 0.04 0.03
0.04 0.03 0.07 0.06 0.04 0.03 0.02 0.01 0.01 0.02 0.01 0.01 0.02 0.02 0.02 0.02 0.01 0.01 0.01 0.00 0.00 0.01 0.01 0.02 0.01 0.01 0.01 0.01 0.02 0.02 0.03 0.03 0.03 0.05 0.05 0.05 0.06 0.05 0.05 0.06 0.05 0.05 0.05
0.03 0.03 0.03 0.02 0.03 0.03 0.02 0.01 0.02 0.03 0.02 0.01 0.01 0.01 0.01 0.00 0.01 0.01 0.01 0.00 0.01 0.01 0.02 0.02 0.02 0.01 0.01 0.01 0.01 0.02 0.02 0.03 0.03 0.05 0.05 0.05 0.06 0.06 0.07 0.06 0.04 0.05 0.05
0.03 0.03 0.03 0.02 0.03 0.03 0.03 0.02 0.03 0.03 0.03 0.02 0.01 0.01 0.01 0.01 0.00 0.00 0.00 0.01 0.01 0.02 0.02 0.02 0.01 0.01 0.01 0.01 0.01 0.02 0.02 0.02 0.03 0.04 0.04 0.05 0.05 0.05 0.06 0.04 0.04 0.04 0.04
0.05 0.05 0.05 0.05 0.06 0.05 0.03 0.03 0.03 0.02 0.02 0.02 0.03 0.03 0.04 0.02 0.00 0.00 0.01 0.02 0.03 0.03 0.02 0.01 0.01 0.01 0.01 0.01 0.01 0.02 0.02 0.03 0.03 0.04 0.04 0.04 0.04 0.04 0.06 0.04 0.03 0.03 0.02
0.05 0.05 0.06 0.08 0.08 0.06 0.05 0.05 0.05 0.06 0.05 0.03 0.04 0.05 0.05 0.03 0.02 0.02 0.03 0.03 0.03 0.02 0.01 0.00 0.00 0.01 0.01 0.02 0.04 0.05 0.05 0.06 0.05 0.04 0.04 0.03 0.03 0.04 0.04 0.02 0.02 0.03 0.02
0.04 0.04 0.05 0.05 0.05 0.05 0.05 0.04 0.05 0.05 0.05 0.09 0.12 0.08 0.05 0.03 0.04 0.04 0.04 0.04 0.02 0.01 0.01 0.00 0.01 0.01 0.01 0.03 0.05 0.06 0.08 0.10 0.09 0.07 0.05 0.04 0.03 0.03 0.03 0.03 0.03 0.03 0.02
0.05 0.03 0.04 0.04 0.04 0.04 0.04 0.04 0.04 0.04 0.05 0.07 0.09 0.06 0.04 0.04 0.05 0.05 0.04 0.03 0.02 0.01 0.01 0.01 0.01 0.01 0.01 0.02 0.02 0.02 0.03 0.05 0.06 0.06 0.05 0.03 0.01 0.01 0.02 0.02 0.03 0.02 0.02
0.03 0.03 0.03 0.04 0.04 0.03 0.02 0.01 0.01 0.02 0.03 0.04 0.05 0.05 0.04 0.04 0.03 0.03 0.03 0.02 0.01 0.01 0.01 0.01 0.02 0.02 0.02 0.02 0.02 0.02 0.02 0.01 0.01 0.01 0.02 0.01 0.01 0.01 0.01 0.01 0.01 0.01 0.01
0.03 0.03 0.03 0.03 0.03 0.03 0.02 0.01 0.01 0.02 0.03 0.03 0.04 0.06 0.05 0.03 0.03 0.02 0.02 0.02 0.02 0.02 0.02 0.02 0.02 0.02 0.02 0.03 0.03 0.03 0.02 0.01 0.01 0.01 0.01 0.00 0.00 0.00 0.01 0.01 0.01 0.01 0.01
0.03 0.03 0.02 0.02 0.03 0.03 0.03 0.02 0.03 0.04 0.04 0.04 0.04 0.04 0.04 0.03 0.03 0.03 0.03 0.03 0.03 0.04 0.03 0.02 0.01 0.02 0.02 0.04 0.05 0.04 0.02 0.01 0.01 0.01 0.01 0.01 0.01 0.01 0.01 0.01 0.00 0.00 0.00
0.02 0.02 0.02 0.02 0.02 0.02 0.02 0.03 0.04 0.04 0.04 0.05 0.06 0.07 0.06 0.05 0.05 0.05 0.05 0.05 0.05 0.06 0.04 0.03 0.02 0.03 0.02 0.03 0.03 0.03 0.02 0.01 0.01 0.01 0.01 0.01 0.01 0.01 0.01 0.01 0.01 0.01 0.01
0.04 0.04 0.02 0.02 0.02 0.01 0.02 0.02 0.04 0.04 0.06 0.08 0.10 0.10 0.11 0.11 0.10 0.09 0.08 0.09 0.08 0.08 0.06 0.04 0.03 0.03 0.03 0.03 0.03 0.03 0.03 0.03 0.03 0.03 0.02 0.01 0.01 0.01 0.01 0.01 0.01 0.01 0.01
0.04 0.03 0.02 0.02 0.02 0.02 0.02 0.02 0.03 0.03 0.05 0.06 0.08 0.11 0.14 0.14 0.15 0.15 0.12 0.09 0.08 0.07 0.06 0.05 0.05 0.04 0.04 0.04 0.04 0.05 0.06 0.06 0.05 0.03 0.03 0.02 0.02 0.02 0.02 0.02 0.02 0.01 0.01
0.03 0.03 0.02 0.02 0.02 0.02 0.02 0.03 0.03 0.03 0.05 0.03 0.03 0.06 0.07 0.10 0.10 0.09 0.09 0.07 0.05 0.04 0.05 0.05 0.05 0.05 0.05 0.05 0.05 0.07 0.07 0.06 0.04 0.03 0.03 0.03 0.03 0.02 0.02 0.02 0.01 0.02 0.02
0.05 0.05 0.04 0.03 0.02 0.02 0.03 0.03 0.03 0.03 0.04 0.03 0.03 0.03 0.04 0.05 0.05 0.04 0.03 0.03 0.02 0.02 0.03 0.03 0.04 0.05 0.05 0.07 0.08 0.08 0.07 0.06 0.05 0.04 0.03 0.02 0.02 0.02 0.01 0.01 0.01 0.02 0.01
0.03 0.04 0.04 0.03 0.03 0.03 0.03 0.03 0.03 0.03 0.04 0.03 0.03 0.03 0.02 0.02 0.02 0.02 0.02 0.02 0.02 0.03 0.03 0.02 0.03 0.04 0.05 0.07 0.09 0.09 0.08 0.07 0.05 0.03 0.02 0.01 0.01 0.01 0.01 0.01 0.01 0.01 0.01
MSLP
1012.05 1012.35 1012.57 1012.68 1012.68 1012.60 1012.49 1012.40 1012.39 1012.49 1012.70 1013.01 1013.36 1013.70 1013.98 1014.16 1014.24 1014.24 1014.20 1014.17 1014.22 1014.37 1014.65 1015.04 1015.51 1016.00 1016.47 1016.88 1017.19 1017.41 1017.53 1017.60 1017.62 1017.62 1017.60 1017.57 1017.49 1017.37 1017.19 1016.94 1016.64 1016.31 1015.98
1012.19 1012.53 1012.79 1012.92 1012.92 1012.82 1012.67 1012.54 1012.49 1012.58 1012.80 1013.13 1013.52 1013.89 1014.20 1014.38 1014.44 1014.39 1014.28 1014.19 1014.16 1014.26 1014.49 1014.85 1015.31 1015.81 1016.29 1016.70 1017.03 1017.26 1017.40 1017.48 1017.53 1017.56 1017.58 1017.58 1017.55 1017.45 1017.28 1017.02 1016.68 1016.29 1015.88
1012.16 1012.57 1012.89 1013.08 1013.12 1013.04 1012.88 1012.74 1012.68 1012.74 1012.95 1013.28 1013.68 1014.06 1014.37 1014.55 1014.58 1014.49 1014.34 1014.19 1014.11 1014.15 1014.33 1014.66 1015.09 1015.56 1016.03 1016.44 1016.77 1017.01 1017.16 1017.26 1017.34 1017.41 1017.48 1017.54 1017.56 1017.52 1017.38 1017.14 1016.80 1016.38 1015.93
1011.89 1012.37 1012.79 1013.08 1013.20 1013.18 1013.07 1012.94 1012.87 1012.92 1013.11 1013.42 1013.79 1014.16 1014.45 1014.62 1014.63 1014.53 1014.35 1014.16 1014.04 1014.03 1014.17 1014.45 1014.84 1015.28 1015.72 1016.11 1016.43 1016.66 1016.83 1016.95 1017.06 1017.18 1017.30 1017.42 1017.51 1017.52 1017.45 1017.25 1016.94 1016.55 1016.09
1011.35 1011.90 1012.43 1012.84 1013.09 1013.18 1013.14 1013.06 1013.01 1013.05 1013.21 1013.48 1013.81 1014.15 1014.41 1014.56 1014.57 1014.45 1014.26 1014.06 1013.92 1013.88 1013.98 1014.22 1014.56 1014.96 1015.36 1015.72 1016.02 1016.24 1016.41 1016.55 1016.69 1016.84 1017.02 1017.19 1017.34 1017.43 1017.42 1017.30 1017.05 1016.71 1016.29
1010.55 1011.18 1011.82 1012.37 1012.77 1012.98 1013.05 1013.04 1013.02 1013.06 1013.19 1013.42 1013.70 1013.99 1014.22 1014.35 1014.35 1014.24 1014.06 1013.86 1013.72 1013.67 1013.75 1013.95 1014.25 1014.60 1014.96 1015.28 1015.55 1015.76 1015.93 1016.08 1016.24 1016.43 1016.64 1016.86 1017.06 1017.21 1017.27 1017.23 1017.06 1016.80 1016.46
1009.60 1010.29 1011.03 1011.71 1012.24 1012.59 1012.78 1012.84 1012.87 1012.91 1013.02 1013.20 1013.44 1013.68 1013.87 1013.98 1013.98 1013.89 1013.73 1013.56 1013.43 1013.39 1013.45 1013.63 1013.89 1014.19 1014.51 1014.80 1015.04 1015.24 1015.41 1015.57 1015.74 1015.94 1016.17 1016.42 1016.66 1016.86 1016.99 1017.02 1016.95 1016.78 1016.55
1008.67 1009.39 1010.20 1010.98 1011.62 1012.07 1012.35 1012.49 1012.55 1012.61 1012.70 1012.84 1013.03 1013.23 1013.39 1013.49 1013.50 1013.43 1013.31 1013.17 1013.07 1013.03 1013.09 1013.25 1013.47 1013.74 1014.02 1014.28 1014.50 1014.69 1014.86 1015.02 1015.20 1015.41 1015.65 1015.92 1016.17 1016.40 1016.58 1016.68 1016.69 1016.64 1016.52
1007.94 1008.66 1009.49 1010.31 1011.00 1011.52 1011.86 1012.04 1012.13 1012.19 1012.27 1012.39 1012.54 1012.70 1012.84 1012.93 1012.95 1012.90 1012.81 1012.72 1012.64 1012.62 1012.68 1012.82 1013.02 1013.25 1013.50 1013.73 1013.94 1014.13 1014.30 1014.47 1014.66 1014.87 1015.11 1015.37 1015.63 1015.88 1016.08 1016.24 1016.33 1016.38 1016.38
1007.61 1008.29 1009.09 1009.87 1010.55 1011.06 1011.40 1011.60 1011.70 1011.75 1011.82 1011.91 1012.03 1012.16 1012.29 1012.37 1012.40 1012.38 1012.32 1012.25 1012.20 1012.20 1012.25 1012.37 1012.54 1012.75 1012.97 1013.18 1013.38 1013.57 1013.75 1013.93 1014.13 1014.34 1014.58 1014.84 1015.09 1015.34 1015.56 1015.75 1015.91 1016.04 1016.15
1007.81 1008.41 1009.11 1009.79 1010.38 1010.82 1011.11 1011.27 1011.34 1011.39 1011.43 1011.50 1011.60 1011.71 1011.81 1011.89 1011.92 1011.91 1011.87 1011.82 1011.78 1011.78 1011.83 1011.93 1012.07 1012.25 1012.44 1012.64 1012.83 1013.02 1013.21 1013.41 1013.62 1013.85 1014.09 1014.34 1014.58 1014.82 1015.05 1015.27 1015.47 1015.67 1015.87
1008.56 1009.05 1009.59 1010.11 1010.55 1010.86 1011.05 1011.13 1011.16 1011.17 1011.19 1011.24 1011.31 1011.40 1011.48 1011.54 1011.56 1011.55 1011.51 1011.46 1011.42 1011.41 1011.44 1011.51 1011.62 1011.76 1011.92 1012.10 1012.28 1012.48 1012.68 1012.90 1013.13 1013.38 1013.63 1013.88 1014.13 1014.37 1014.60 1014.83 1015.06 1015.31 1015.57
1009.76 1010.11 1010.47 1010.79 1011.03 1011.18 1011.23 1011.23 1011.19 1011.15 1011.14 1011.16 1011.20 1011.25 1011.30 1011.33 1011.32 1011.29 1011.23 1011.16 1011.11 1011.08 1011.08 1011.12 1011.19 1011.29 1011.42 1011.57 1011.74 1011.93 1012.15 1012.39 1012.65 1012.92 1013.20 1013.47 1013.72 1013.97 1014.21 1014.45 1014.70 1014.97 1015.27
1011.23 1011.43 1011.60 1011.71 1011.75 1011.72 1011.64 1011.53 1011.42 1011.33 1011.28 1011.26 1011.26 1011.27 1011.27 1011.24 1011.19 1011.11 1011.01 1010.92 1010.83 1010.77 1010.73 1010.73 1010.76 1010.82 1010.91 1011.02 1011.17 1011.36 1011.58 1011.84 1012.13 1012.44 1012.75 1013.06 1013.35 1013.62 1013.87 1014.12 1014.39 1014.68 1014.99
1012.73 1012.79 1012.79 1012.71 1012.57 1012.38 1012.17 1011.97 1011.79 1011.66 1011.56 1011.50 1011.44 1011.39 1011.32 1011.22 1011.10 1010.96 1010.81 1010.67 1010.55 1010.45 1010.38 1010.34 1010.32 1010.33 1010.37 1010.45 1010.57 1010.73 1010.95 1011.23 1011.55 1011.90 1012.26 1012.62 1012.96 1013.27 1013.56 1013.84 1014.12 1014.41 1014.73
1014.04 1014.00 1013.85 1013.62 1013.34 1013.03 1012.73 1012.47 1012.24 1012.07 1011.92 1011.80 1011.68 1011.55 1011.39 1011.20 1011.00 1010.79 1010.58 1010.39 1010.23 1010.10 1009.99 1009.91 1009.85 1009.81 1009.80 1009.83 1009.91 1010.04 1010.25 1010.54 1010.88 1011.28 1011.70 1012.12 1012.53 1012.91 1013.25 1013.57 1013.87 1014.17 1014.48
1015.00 1014.88 1014.64 1014.32 1013.96 1013.59 1013.24 1012.94 1012.69 1012.48 1012.30 1012.11 1011.92 1011.69 1011.43 1011.15 1010.85 1010.56 1010.29 1010.05 1009.85 1009.69 1009.56 1009.45 1009.35 1009.27 1009.21 1009.18 1009.21 1009.31 1009.49 1009.78 1010.14 1010.58 1011.06 1011.56 1012.05 1012.51 1012.92 1013.29 1013.62 1013.93 1014.24
1015.55 1015.39 1015.11 1014.76 1014.37 1013.99 1013.64 1013.34 1013.09 1012.85 1012.63 1012.38 1012.10 1011.77 1011.41 1011.02 1010.64 1010.27 1009.94 1009.66 1009.44 1009.26 1009.11 1008.97 1008.84 1008.72 1008.61 1008.53 1008.50 1008.56 1008.71 1008.98 1009.36 1009.83 1010.37 1010.94 1011.52 1012.06 1012.56 1012.99 1013.37 1013.70 1014.01
1015.74 1015.57 1015.29 1014.95 1014.59 1014.24 1013.93 1013.65 1013.40 1013.15 1012.89 1012.58 1012.22 1011.80 1011.34 1010.86 1010.39 1009.96 1009.59 1009.29 1009.05 1008.86 1008.70 1008.56 1008.40 1008.24 1008.09 1007.95 1007.87 1007.87 1007.98 1008.22 1008.59 1009.09 1009.67 1010.31 1010.97 1011.60 1012.17 1012.68 1013.10 1013.47 1013.78
1015.70 1015.55 1015.30 1015.01 1014.69 1014.40 1014.13 1013.89 1013.65 1013.39 1013.09 1012.73 1012.29 1011.80 1011.26 1010.71 1010.19 1009.72 1009.32 1009.01 1008.77 1008.58 1008.42 1008.27 1008.10 1007.91 1007.71 1007.52 1007.37 1007.31 1007.37 1007.58 1007.93 1008.43 1009.04 1009.72 1010.44 1011.14 1011.79 1012.36 1012.84 1013.24 1013.56
1015.59 1015.46 1015.26 1015.01 1014.76 1014.53 1014.30 1014.09 1013.86 1013.60 1013.27 1012.86 1012.37 1011.82 1011.23 1010.64 1010.09 1009.60 1009.21 1008.90 1008.67 1008.50 1008.35 1008.19 1008.01 1007.79 1007.55 1007.31 1007.11 1006.98 1006.99 1007.14 1007.46 1007.93 1008.54 1009.24 1009.99 1010.74 1011.45 1012.07 1012.59 1013.02 1013.35
1015.54 1015.44 1015.27 1015.07 1014.87 1014.68 1014.49 1014.29 1014.07 1013.79 1013.44 1013.00 1012.49 1011.91 1011.31 1010.71 1010.16 1009.69 1009.31 1009.03 1008.82 1008.67 1008.53 1008.37 1008.18 1007.94 1007.66 1007.37 1007.11 1006.93 1006.87 1006.97 1007.23 1007.66 1008.24 1008.93 1009.68 1010.44 1011.16 1011.81 1012.36 1012.81 1013.15
1015.62 1015.53 1015.39 1015.22 1015.04 1014.87 1014.70 1014.51 1014.28 1013.99 1013.62 1013.18 1012.66 1012.09 1011.50 1010.94 1010.42 1009.99 1009.65 1009.41 1009.23 1009.10 1008.97 1008.81 1008.60 1008.34 1008.04 1007.71 1007.41 1007.17 1007.05 1007.09 1007.29 1007.66 1008.18 1008.82 1009.53 1010.27 1010.98 1011.62 1012.17 1012.62 1012.96
1015.83 1015.74 1015.60 1015.44 1015.27 1015.10 1014.92 1014.72 1014.48 1014.18 1013.82 1013.38 1012.88 1012.35 1011.81 1011.30 1010.85 1010.47 1010.19 1009.98 1009.84 1009.72 1009.60 1009.45 1009.23 1008.96 1008.63 1008.28 1007.95 1007.67 1007.50 1007.47 1007.61 1007.90 1008.35 1008.91 1009.55 1010.22 1010.88 1011.49 1012.02 1012.44 1012.77
1016.11 1016.00 1015.86 1015.69 1015.51 1015.32 1015.13 1014.91 1014.65 1014.35 1013.99 1013.58 1013.12 1012.65 1012.18 1011.74 1011.36 1011.06 1010.83 1010.66 1010.54 1010.44 1010.32 1010.17 1009.95 1009.67 1009.34 1008.98 1008.63 1008.34 1008.14 1008.06 1008.13 1008.35 1008.70 1009.17 1009.72 1010.30 1010.88 1011.41 1011.88 1012.27 1012.57
1016.34 1016.23 1016.07 1015.89 1015.69 1015.48 1015.26 1015.02 1014.75 1014.45 1014.11 1013.73 1013.33 1012.92 1012.53 1012.17 1011.86 1011.62 1011.44 1011.30 1011.20 1011.11 1010.99 1010.83 1010.61 1010.34 1010.02 1009.68 1009.34 1009.05 1008.84 1008.73 1008.75 1008.90 1009.17 1009.54 1009.97 1010.44 1010.92 1011.36 1011.75 1012.08 1012.34
Thickness
5804 5804 5803 5801 5799 5796 5793 5790 5787 5786 5784 5780 5777 5774 5772 5773 5773 5773 5773 5771 5770 5768 5766 5764 5762 5761 5758 5756 5755 5753 5751 5749 5749 5744 5741 5743 5745 5745 5746 5745 5745 5744 5743
5803 5803 5802 5801 5799 5796 5794 5791 5789 5787 5785 5783 5780 5777 5775 5773 5773 5773 5772 5772 5770 5769 5767 5764 5762 5760 5758 5755 5754 5752 5748 5747 5747 5741 5736 5732 5734 5739 5743 5742 5742 5741 5741
5805 5804 5804 5802 5800 5797 5796 5794 5791 5789 5787 5785 5782 5779 5775 5773 5771 5770 5770 5771 5770 5768 5767 5765 5762 5760 5758 5754 5753 5751 5747 5743 5744 5744 5737 5729 5726 5730 5735 5738 5739 5738 5738
5812 5808 5805 5802 5801 5800 5799 5795 5792 5789 5787 5785 5781 5776 5772 5768 5769 5770 5770 5770 5770 5768 5767 5764 5762 5760 5758 5755 5752 5751 5748 5744 5740 5741 5740 5738 5735 5728 5726 5731 5734 5735 5735
5815 5811 5809 5806 5804 5803 5800 5796 5792 5789 5787 5785 5781 5776 5773 5771 5771 5771 5769 5769 5768 5768 5766 5764 5761 5759 5757 5754 5752 5750 5748 5745 5741 5739 5738 5736 5734 5732 5726 5723 5726 5729 5731
5816 5813 5811 5809 5806 5804 5801 5798 5793 5790 5788 5785 5782 5777 5773 5772 5770 5768 5767 5766 5766 5766 5765 5763 5761 5758 5756 5754 5752 5749 5747 5745 5742 5740 5738 5735 5731 5729 5726 5722 5722 5722 5725
5816 5811 5808 5806 5804 5803 5801 5797 5793 5788 5787 5784 5781 5778 5776 5773 5771 5768 5766 5765 5763 5763 5762 5762 5759 5757 5755 5753 5751 5748 5746 5744 5741 5739 5737 5735 5733 5732 5729 5724 5720 5719 5720
5816 5813 5812 5809 5807 5805 5801 5797 5792 5788 5787 5784 5781 5780 5777 5774 5772 5770 5768 5765 5764 5763 5762 5761 5759 5756 5754 5752 5750 5747 5745 5743 5741 5739 5737 5735 5734 5732 5729 5725 5719 5714 5713
5816 5814 5814 5812 5809 5805 5803 5799 5794 5789 5786 5784 5781 5778 5777 5774 5771 5769 5767 5765 5764 5763 5761 5759 5757 5755 5753 5750 5748 5745 5743 5741 5739 5738 5736 5734 5733 5731 5729 5726 5722 5714 5707
5817 5816 5815 5813 5810 5807 5804 5800 5795 5790 5786 5783 5780 5778 5775 5773 5771 5768 5765 5763 5762 5761 5759 5756 5754 5752 5751 5748 5745 5742 5741 5739 5737 5735 5733 5731 5730 5728 5726 5723 5721 5717 5711
5816 5814 5814 5813 5810 5807 5803 5798 5794 5790 5786 5783 5780 5777 5774 5772 5769 5766 5764 5762 5760 5758 5755 5753 5750 5748 5747 5745 5742 5739 5737 5735 5732 5731 5729 5727 5726 5723 5722 5720 5717 5714 5710
5813 5812 5811 5809 5807 5804 5801 5797 5793 5789 5786 5783 5779 5776 5773 5770 5767 5764 5762 5760 5756 5754 5752 5750 5747 5745 5743 5741 5738 5735 5734 5731 5728 5726 5724 5722 5721 5718 5717 5715 5712 5710 5708
5808 5805 5805 5803 5801 5800 5798 5795 5792 5788 5784 5781 5777 5773 5770 5767 5764 5761 5759 5757 5753 5750 5748 5746 5743 5740 5739 5737 5735 5733 5730 5727 5725 5723 5720 5718 5715 5712 5711 5709 5707 5705 5703
5801 5799 5798 5797 5797 5796 5794 5792 5789 5786 5782 5778 5774 5770 5767 5765 5762 5759 5756 5753 5750 5747 5744 5742 5739 5737 5735 5733 5731 5729 5726 5723 5721 5718 5716 5714 5711 5708 5706 5704 5701 5699 5696
5796 5794 5792 5791 5791 5790 5788 5787 5785 5782 5779 5775 5771 5768 5765 5762 5759 5756 5752 5749 5746 5744 5741 5738 5735 5733 5731 5729 5726 5724 5722 5718 5715 5712 5710 5709 5707 5705 5703 5700 5696 5694 5690
5794 5792 5790 5787 5786 5785 5784 5783 5781 5778 5776 5771 5768 5765 5762 5758 5755 5752 5748 5744 5742 5739 5736 5733 5730 5727 5726 5724 5722 5719 5716 5713 5709 5706 5704 5703 5701 5700 5698 5696 5693 5690 5686
5790 5787 5787 5784 5782 5781 5781 5778 5777 5775 5770 5766 5764 5760 5756 5753 5750 5748 5744 5740 5737 5734 5731 5728 5725 5722 5720 5719 5717 5714 5711 5708 5705 5702 5699 5698 5696 5694 5691 5689 5687 5684 5682
5784 5782 5782 5779 5778 5778 5777 5775 5772 5769 5764 5761 5758 5755 5752 5748 5746 5742 5739 5736 5733 5729 5726 5723 5720 5717 5715 5714 5712 5709 5706 5703 5700 5698 5695 5692 5689 5687 5684 5682 5679 5677 5675
5781 5779 5778 5776 5773 5772 5770 5768 5764 5761 5758 5755 5753 5751 5748 5744 5741 5737 5735 5732 5727 5724 5721 5719 5716 5713 5710 5709 5707 5704 5700 5697 5694 5692 5690 5687 5683 5681 5678 5674 5671 5669 5668
5776 5774 5773 5771 5766 5764 5763 5760 5756 5753 5751 5750 5748 5746 5744 5740 5737 5734 5731 5727 5723 5719 5717 5714 5712 5709 5706 5704 5702 5699 5695 5690 5687 5685 5683 5681 5678 5675 5672 5668 5664 5661 5659
5769 5768 5766 5762 5759 5758 5755 5750 5747 5745 5746 5745 5743 5740 5737 5735 5732 5729 5725 5722 5718 5714 5711 5708 5706 5704 5702 5699 5696 5692 5688 5684 5680 5677 5676 5674 5672 5669 5665 5662 5659 5657 5654
5759 5759 5756 5753 5752 5751 5748 5744 5741 5741 5740 5738 5735 5732 5729 5727 5725 5721 5718 5714 5711 5707 5703 5700 5698 5697 5695 5693 5690 5686 5683 5679 5675 5672 5670 5668 5666 5662 5659 5656 5654 5652 5648
5751 5751 5749 5745 5744 5743 5741 5737 5736 5735 5732 5729 5726 5723 5721 5718 5716 5713 5709 5706 5702 5699 5696 5693 5691 5689 5687 5685 5683 5679 5676 5674 5670 5668 5666 5662 5659 5656 5653 5651 5648 5645 5641
5742 5742 5739 5735 5733 5733 5732 5731 5729 5726 5723 5720 5718 5716 5712 5710 5708 5706 5704 5700 5696 5693 5691 5688 5684 5682 5680 5677 5674 5671 5668 5665 5662 5660 5658 5656 5652 5649 5647 5644 5641 5638 5635
5732 5732 5729 5726 5725 5725 5723 5722 5720 5718 5714 5711 5709 5708 5705 5702 5699 5698 5696 5694 5692 5690 5686 5683 5680 5675 5673 5673 5670 5665 5661 5658 5654 5651 5648 5646 5643 5641 5638 5636 5633 5631 5628
5722 5720 5718 5717 5717 5716 5714 5714 5712 5709 5705 5702 5701 5699 5696 5694 5692 5689 5686 5686 5684 5683 5681 5678 5675 5672 5670 5667 5663 5659 5655 5651 5648 5643 5641 5639 5637 5635 5633 5630 5627 5625 5623